Terug naar catalogus

STARLINK-33789

ActiefCommunicatieVLEO
NORAD 63657·PAYLOAD·🇺🇸 United States

Gelanceerd Apr 25, 2025 vanaf Cape Canaveral Space Force Station

Loading…

Volgende Passages (komende 24 uur)

TLE

VersSource: CelesTrak SupGP

Epoch: Sep 14, 2026, 21:32 UTC

1 63657C 25083Z   26257.89770833  .00029196  00000+0  10574-2 0  2574
2 63657  43.0016  16.5325 0001508 272.9450 144.6157 15.27567638    17

Volg STARLINK-33789 in realtime met AllMySat

Download on the App Store